Weather reports worldwide

Advertisment
Exeter Airport No. 2, United Kingdom (3844): temperature & dewpoint: 18.06.2017 23:00:00 - 24.06.2017 23:00:00 (BST)Exeter Airport No. 2, United Kingdom (3844): wind speed: 18.06.2017 23:00:00 - 24.06.2017 23:00:00 (BST)Exeter Airport No. 2, United Kingdom (3844): wind direction: 18.06.2017 23:00:00 - 24.06.2017 23:00:00 (BST)Exeter Airport No. 2, United Kingdom (3844): reduced air pressure: 18.06.2017 23:00:00 - 24.06.2017 23:00:00 (BST)Exeter Airport No. 2, United Kingdom (3844): visibility: 18.06.2017 23:00:00 - 24.06.2017 23:00:00 (BST)Exeter Airport No. 2, United Kingdom (3844): sunshine duration: 18.06.2017 23:00:00 - 24.06.2017 23:00:00 (BST)Exeter Airport No. 2, United Kingdom (3844): precipitation: 18.06.2017 23:00:00 - 24.06.2017 23:00:00 (BST)
Date & Time tt [°C] td [°C] ff [km/h] ff [kn] dd ppp [hPa] vv [km] sd [min] rr [mm]
24.06.2017 23:00:00 15,6 12,6 15 8 W 1014,9 45 0 0,0
24.06.2017 22:00:00 15,8 13,1 15 8 W 1014,8 35 0 0,0
24.06.2017 21:00:00 16,2 13,3 16 9 W 1014,4 35 0 0,0
24.06.2017 20:00:00 17,3 14,2 18 10 W 1013,9 50 0 0,0
24.06.2017 19:00:00 18,3 14,7 16 9 WNW 1013,6 50 12 0,0
24.06.2017 18:00:00 20,0 15,2 15 8 WNW 1013,4 50 6 0,0
24.06.2017 17:00:00 20,5 15,7 21 11 WSW 1013,4 50 6 0,0
24.06.2017 16:00:00 18,9 16,7 21 11 WSW 1014,0 50 0 0,2
24.06.2017 15:00:00 20,5 16,8 22 12 WSW 1014,1 50 0 0,0
24.06.2017 14:00:00 19,7 16,8 16 9 SW 1014,5 50 0 0,2
24.06.2017 13:00:00 19,4 17,3 8 4 WNW 1014,8 50 0 0,8
24.06.2017 12:00:00 18,3 16,3 11 6 NW 1014,9 15 0 0,0
24.06.2017 11:00:00 18,4 16,2 11 6 W 1014,9 26 0 0,0
24.06.2017 10:00:00 17,7 15,8 11 6 WNW 1015,1 5 0 0,0
24.06.2017 09:00:00 18,0 15,3 9 5 SSW 1015,1 50 0 0,0
24.06.2017 08:00:00 17,4 15,2 13 7 S 1015,2 50 0 0,0
24.06.2017 07:00:00 17,2 14,9 11 6 SSW 1015,0 50 0 0,0
24.06.2017 06:00:00 16,9 14,7 11 6 SSW 1015,2 50 0 0,0
24.06.2017 05:00:00 16,7 14,5 9 5 S 1015,5 50 0 0,0
24.06.2017 04:00:00 16,6 14,5 11 6 S 1015,9 40 0 0,0
24.06.2017 03:00:00 16,6 14,3 15 8 SW 1016,3 40 0 0,0
24.06.2017 02:00:00 16,6 13,9 13 7 SW 1016,6 45 0 0,0
24.06.2017 01:00:00 16,7 13,7 16 9 SW 1016,9 35 - 0,0
24.06.2017 00:00:00 16,6 13,6 15 8 SW 1017,3 27 0 0,0
23.06.2017 23:00:00 16,7 13,7 18 10 SW 1017,5 27 0 0,0
23.06.2017 22:00:00 17,6 13,6 16 9 WSW 1017,5 45 0 0,0
23.06.2017 21:00:00 18,2 13,2 18 10 SW 1017,4 30 0 0,0
23.06.2017 20:00:00 18,9 13,0 26 14 SW 1017,2 35 6 0,0
23.06.2017 19:00:00 20,1 14,0 26 14 SW 1017,1 45 18 0,0
23.06.2017 18:00:00 19,1 14,7 18 10 SSW 1017,4 45 12 0,0
23.06.2017 17:00:00 19,9 14,4 21 11 SW 1017,8 45 0 0,0
23.06.2017 16:00:00 19,2 13,4 24 13 WSW 1018,0 40 0 0,0
23.06.2017 15:00:00 20,4 12,5 21 11 W 1017,7 50 0 0,0
23.06.2017 14:00:00 20,9 12,6 21 11 W 1017,8 50 6 0,0
23.06.2017 13:00:00 20,8 12,0 24 13 W 1017,9 50 12 0,0
23.06.2017 12:00:00 20,7 12,0 31 17 W 1017,9 50 18 0,0
23.06.2017 11:00:00 19,2 11,7 24 13 W 1018,3 50 0 0,0
23.06.2017 10:00:00 17,8 11,7 26 14 W 1018,4 50 0 0,0
23.06.2017 09:00:00 17,3 11,8 28 15 W 1017,7 50 0 0,0
23.06.2017 08:00:00 16,4 11,7 22 12 W 1017,6 40 0 0,0
23.06.2017 07:00:00 15,9 11,3 16 9 W 1017,3 45 0 0,0
23.06.2017 06:00:00 15,2 10,4 15 8 W 1017,3 40 0 0,0
23.06.2017 05:00:00 15,1 10,5 13 7 W 1017,4 30 0 0,0
23.06.2017 04:00:00 15,1 11,1 15 8 W 1017,5 35 0 0,0
23.06.2017 03:00:00 14,5 10,6 15 8 WSW 1017,4 30 0 0,0
23.06.2017 02:00:00 14,0 10,4 11 6 WSW 1017,4 30 0 0,0
23.06.2017 01:00:00 14,0 10,7 9 5 W 1017,4 30 - 0,0
23.06.2017 00:00:00 14,6 11,0 13 7 WNW 1017,2 29 0 0,0
22.06.2017 23:00:00 15,4 11,9 15 8 WNW 1016,9 40 0 0,0
22.06.2017 22:00:00 16,5 12,4 13 7 W 1016,4 45 0 0,0
22.06.2017 21:00:00 16,7 12,1 11 6 WNW 1015,9 50 0 0,0
22.06.2017 20:00:00 17,1 12,2 13 7 WNW 1015,9 45 0 0,0
22.06.2017 19:00:00 18,2 12,3 15 8 W 1015,6 50 0 0,0
22.06.2017 18:00:00 18,8 12,8 15 8 WNW 1015,3 50 0 0,0
22.06.2017 17:00:00 19,4 12,9 18 10 WNW 1014,9 50 0 0,0
22.06.2017 16:00:00 19,0 13,0 18 10 WNW 1014,8 50 0 0,0
22.06.2017 15:00:00 19,5 13,4 21 11 W 1014,6 50 0 0,0
22.06.2017 14:00:00 19,1 13,4 21 11 W 1014,4 40 0 0,0
22.06.2017 13:00:00 19,2 13,5 18 10 WNW 1014,3 18 6 0,0
22.06.2017 12:00:00 18,9 13,5 21 11 WNW 1014,0 40 0 0,0
22.06.2017 11:00:00 18,5 13,0 22 12 W 1013,7 45 0 0,0
22.06.2017 10:00:00 18,5 13,2 22 12 W 1013,5 45 0 0,0
22.06.2017 09:00:00 17,6 12,4 21 11 W - 40 0 0,0
22.06.2017 08:00:00 17,7 13,0 13 7 W - 40 0 0,0
22.06.2017 07:00:00 17,7 13,6 13 7 W - 30 0 0,0
22.06.2017 06:00:00 17,3 13,9 13 7 W - 25 0 0,0
22.06.2017 05:00:00 16,8 14,5 9 5 W - 20 0 0,0
22.06.2017 04:00:00 16,7 14,6 9 5 WNW - 18 0 0,0
22.06.2017 03:00:00 16,8 15,1 13 7 NW - 11 0 0,0
22.06.2017 02:00:00 17,9 17,3 8 4 WNW - 5 0 0,0
22.06.2017 01:00:00 17,7 16,9 8 4 WNW - 5 - 0,0
22.06.2017 00:00:00 18,5 17,2 11 6 W - 7 0 0,0
21.06.2017 23:00:00 18,2 16,6 4 2 ENE - 9 0 0,0
21.06.2017 22:00:00 18,4 16,4 2 1 SW - 12 0 0,0
21.06.2017 21:00:00 20,8 17,3 5 3 SE - 15 0 0,0
21.06.2017 20:00:00 22,9 18,1 8 4 SE - 16 54 0,0
21.06.2017 19:00:00 24,8 18,7 13 7 SE - 21 60 0,0
21.06.2017 18:00:00 26,6 18,4 11 6 S - 28 54 0,0
21.06.2017 17:00:00 26,4 18,2 11 6 SE - 27 60 0,0
21.06.2017 16:00:00 26,4 18,5 15 8 SE - 25 60 0,0
21.06.2017 15:00:00 25,1 18,0 11 6 SSE - 18 60 0,0
21.06.2017 14:00:00 24,5 17,9 13 7 S - 14 60 0,0
21.06.2017 13:00:00 25,1 18,2 15 8 SE - 17 60 0,0
21.06.2017 12:00:00 25,4 18,0 21 11 SE - 22 60 0,0
21.06.2017 11:00:00 24,5 17,4 16 9 SSE - 20 60 0,0
21.06.2017 10:00:00 24,5 17,7 15 8 SE 1013,7 25 60 0,0
21.06.2017 09:00:00 23,4 18,5 4 2 ENE 1013,9 11 60 0,0
21.06.2017 08:00:00 20,0 17,5 4 2 NNE 1014,4 9 60 0,0
21.06.2017 07:00:00 16,5 16,2 2 1 E 1014,9 3,4 24 0,0
21.06.2017 06:00:00 14,1 14,0 2 1 NE 1014,6 1,9 0 0,0
21.06.2017 05:00:00 13,2 12,2 5 3 ENE 1019,5 - 0 0,0
21.06.2017 04:00:00 14,6 14,0 2 1 E 1014,9 3,2 0 0,0
21.06.2017 03:00:00 14,8 14,0 2 1 NNE 1015,3 3,6 0 0,0
21.06.2017 02:00:00 16,8 14,5 4 2 NE 1015,7 7 0 0,0
21.06.2017 01:00:00 19,0 14,6 5 3 SE 1016,2 17 - 0,0
21.06.2017 00:00:00 19,2 15,1 8 4 SE 1016,5 16 0 0,0
20.06.2017 23:00:00 17,4 15,5 4 2 ESE 1016,6 6 0 0,0
20.06.2017 22:00:00 20,0 15,4 4 2 W 1016,4 12 0 0,0
20.06.2017 21:00:00 22,5 15,8 5 3 SSW 1016,1 19 30 0,0
20.06.2017 20:00:00 23,7 16,5 9 5 SSE 1015,8 24 60 0,0
20.06.2017 19:00:00 25,0 16,8 11 6 SSE 1015,7 6 54 0,0
20.06.2017 18:00:00 26,3 17,2 13 7 SE 1015,6 16 60 0,0
20.06.2017 17:00:00 27,1 16,6 16 9 SE 1015,8 45 60 0,0
20.06.2017 16:00:00 28,8 18,2 18 10 SE 1016,0 35 60 0,0
20.06.2017 15:00:00 29,0 17,6 16 9 SE 1016,3 35 60 0,0
20.06.2017 14:00:00 29,8 18,6 11 6 SE 1016,5 45 60 0,0
20.06.2017 13:00:00 28,6 17,3 11 6 ESE 1016,8 50 60 0,0
20.06.2017 12:00:00 28,1 16,5 13 7 ESE 1016,8 50 60 0,0
20.06.2017 11:00:00 26,1 18,3 9 5 ENE 1016,9 30 60 0,0
20.06.2017 10:00:00 24,2 18,7 8 4 NNE 1017,2 24 60 0,0
20.06.2017 09:00:00 22,3 17,8 2 1 N 1017,2 22 60 0,0
20.06.2017 08:00:00 20,0 17,8 4 2 NE 1017,2 14 54 0,0
20.06.2017 07:00:00 16,0 15,7 5 3 SSW 1017,1 9 0 0,0
20.06.2017 06:00:00 15,6 15,2 0 0 N 1016,9 9 0 0,0
20.06.2017 05:00:00 15,2 14,8 2 1 WSW 1016,8 7 0 0,0
20.06.2017 04:00:00 15,0 14,7 5 3 E 1017,0 5 0 0,0
20.06.2017 03:00:00 14,9 14,5 4 2 NNE 1017,3 4,1 0 0,0
20.06.2017 02:00:00 14,1 13,6 4 2 NE 1017,0 5 0 0,0
20.06.2017 01:00:00 14,7 14,1 4 2 N 1017,3 11 - 0,0
20.06.2017 00:00:00 15,0 13,6 4 2 NE 1017,5 8 0 0,0
19.06.2017 23:00:00 16,4 15,0 5 3 E 1017,8 13 0 0,0
19.06.2017 22:00:00 19,0 15,2 2 1 E 1017,7 16 0 0,0
19.06.2017 21:00:00 21,9 16,5 4 2 SSE 1017,5 27 24 0,0
19.06.2017 20:00:00 24,7 16,8 5 3 S 1017,4 35 60 0,0
19.06.2017 19:00:00 26,2 15,8 9 5 SSE 1017,2 40 60 0,0
19.06.2017 18:00:00 26,6 16,0 11 6 SE 1017,1 50 60 0,0
19.06.2017 17:00:00 27,2 16,0 11 6 S 1017,4 40 60 0,0
19.06.2017 16:00:00 27,3 16,0 15 8 SE 1017,8 45 60 0,0
19.06.2017 15:00:00 27,8 16,8 16 9 SE 1017,9 45 60 0,0
19.06.2017 14:00:00 27,8 16,5 15 8 SSE 1018,2 50 60 0,0
19.06.2017 13:00:00 27,1 16,9 15 8 SSE 1018,5 40 60 0,0
19.06.2017 12:00:00 27,4 17,3 13 7 SSE 1018,8 35 60 0,0
19.06.2017 11:00:00 26,6 17,6 9 5 SE 1018,7 35 60 0,0
19.06.2017 10:00:00 25,3 18,2 5 3 SSE 1019,1 30 60 0,0
19.06.2017 09:00:00 21,7 17,8 4 2 NNW 1019,4 26 60 0,0
19.06.2017 08:00:00 17,7 16,4 2 1 WNW 1019,6 19 60 0,0
19.06.2017 07:00:00 15,2 15,2 4 2 NNW 1019,7 16 60 0,0
19.06.2017 06:00:00 11,8 11,8 2 1 NE 1019,9 0,6 0 0,0
19.06.2017 05:00:00 10,5 10,3 4 2 NE 1020,0 0,6 0 0,0
19.06.2017 04:00:00 11,4 11,1 4 2 NW 1020,2 3,3 0 0,0
19.06.2017 03:00:00 12,8 12,6 2 1 ENE 1020,4 5 0 0,0
19.06.2017 02:00:00 12,8 12,3 2 1 WNW 1020,8 16 0 0,0
19.06.2017 01:00:00 13,6 12,8 2 1 E 1021,0 19 - 0,0
19.06.2017 00:00:00 13,8 12,8 4 2 ENE 1021,1 18 0 0,0
18.06.2017 23:00:00 15,7 14,2 4 2 E 1021,3 29 0 0,0

tt = temperature
td = dewpoint
ff = wind speed
dd = wind direction
ppp = reduced air pressure
vv = visibility
sd = sunshine duration
rr = precipitation

Next stations